Dewpoint
45 41 39 40 42 42 44 45 44 47 48 46 46 45 45 47 48 49 50 50 51 52 52 56 59 60 63 66 66 67 68 68 68 68 67 67 67 67 68 69 69 70 70 70
42 37 38 40 42 44 46 45 46 47 48 46 46 45 46 48 47 48 48 49 50 51 52 56 58 59 63 64 65 67 67 68 68 69 68 69 69 69 68 69 70 70 70 70
26 30 37 39 42 44 45 44 45 45 48 49 46 43 44 46 48 48 48 48 49 50 53 55 58 59 62 64 65 66 67 68 68 68 69 69 70 70 69 69 68 69 70 70
23 27 34 38 38 41 41 44 45 47 47 44 48 33 44 45 45 46 47 47 48 50 53 55 57 59 60 62 64 66 68 68 69 69 67 67 66 66 68 68 69 70 71 71
27 32 39 39 40 43 41 46 47 48 48 46 45 41 38 47 44 45 46 47 48 50 52 53 55 58 60 62 63 65 67 68 68 69 69 68 67 67 68 68 70 71 71 72
27 33 39 42 44 43 47 46 45 44 44 40 43 42 39 42 39 43 46 47 48 49 51 53 55 59 61 62 63 64 67 68 68 69 69 69 68 68 68 69 69 68 71 71
25 27 43 44 43 44 43 39 37 37 36 35 43 43 39 43 45 41 41 46 48 50 50 52 54 57 60 62 62 63 66 66 68 68 68 69 69 70 70 70 69 69 70 69
20 26 36 42 41 41 42 39 34 33 34 35 42 38 36 41 47 45 46 48 49 50 49 50 53 55 60 62 64 64 64 66 67 68 68 69 70 69 69 70 70 69 69 70
22 25 33 40 42 41 40 38 39 39 39 35 37 38 38 41 42 47 47 48 48 50 51 51 53 55 59 61 63 65 65 66 67 67 68 69 70 70 69 71 72 70 72 71
27 27 30 40 41 42 40 41 35 37 34 30 34 35 34 40 41 45 47 47 48 49 52 52 53 54 57 60 63 65 66 66 67 67 68 68 69 70 71 71 71 72 72 73
25 26 30 38 35 36 40 38 38 36 34 29 28 28 39 37 40 43 45 47 46 46 50 54 55 56 57 60 62 65 66 67 67 68 68 69 69 69 71 70 71 72 73 74
23 23 30 33 24 36 38 36 36 32 36 35 30 26 35 37 38 41 43 45 50 52 54 55 58 59 61 63 64 65 66 66 68 69 71 70 70 71 71 72 72 72 72 72
22 20 22 22 32 37 35 38 37 35 36 34 25 28 38 39 41 44 44 50 56 57 58 60 62 65 66 67 68 69 69 69 69 71 71 71 71 71 70 70 70 70 70 71
23 18 22 23 27 32 32 37 37 34 31 33 26 32 36 38 40 43 47 54 59 62 63 64 65 67 68 69 69 69 70 71 71 70 69 69 68 67 67 67 67 66 66 66
20 16 21 21 22 32 29 32 36 34 33 30 31 29 33 38 40 43 52 60 63 63 64 65 66 67 68 68 68 69 69 69 69 68 67 66 66 65 64 64 64 64 64 64
22 18 21 17 20 20 21 23 32 35 34 33 33 30 35 42 52 54 57 60 62 63 65 66 67 68 68 68 68 67 67 66 65 64 64 63 62 62 62 62 62 63 63 62
26 22 22 18 20 19 20 24 32 34 35 34 32 32 49 50 48 53 59 61 62 64 66 66 67 67 67 67 67 65 63 62 62 63 61 61 61 61 60 60 61 62 60 60
27 27 26 18 25 18 20 22 29 33 35 35 40 44 46 47 50 57 61 62 65 66 67 68 67 67 67 66 64 62 61 61 61 62 61 61 60 60 60 60 61 60 59 59
28 27 25 18 22 25 25 32 29 33 34 36 38 51 56 59 61 63 64 65 67 68 68 67 67 66 66 64 62 60 59 60 60 60 61 60 60 59 60 60 60 60 58 57
31 30 27 27 16 18 21 27 33 26 21 36 47 55 57 56 44 51 65 67 68 68 68 67 65 65 64 62 60 59 59 59 59 60 60 61 59 59 59 60 59 58 57 56
30 30 28 25 18 19 25 24 35 28 27 38 48 56 56 50 47 61 66 67 67 67 65 64 64 63 63 62 60 59 59 59 60 60 60 59 60 59 59 59 58 57 56 57
31 30 29 28 24 18 31 33 26 34 42 44 51 58 58 57 63 65 66 66 65 64 63 63 63 63 63 62 62 60 60 61 61 60 59 59 59 56 58 57 57 57 57 56
27 27 26 26 21 34 38 31 34 39 44 50 54 58 58 61 63 65 66 65 64 63 62 62 62 62 64 64 63 62 62 63 62 60 59 59 58 59 59 59 58 53 52 48
27 29 26 25 25 24 34 41 39 41 42 51 55 58 59 62 64 65 65 64 62 62 61 61 61 62 63 64 64 64 64 63 60 60 60 60 58 58 59 56 49 45 45 46
34 30 31 27 31 27 35 42 41 45 47 52 57 60 61 63 64 65 64 63 62 61 61 60 60 62 63 64 64 63 62 59 57 57 57 57 56 57 58 53 49 47 50 48
46 37 22 19 30 28 27 38 46 51 52 56 60 60 62 64 65 65 64 63 63 62 61 61 61 62 63 64 64 61 60 57 55 55 55 55 55 56 54 48 48 48 47 47
Wind_Speed
3 5 7 10 12 3 12 11 10 6 8 11 6 3 12 12 13 13 13 13 15 15 10 10 13 13 12 12 13 14 13 12 11 7 7 6 8 10 9 10 11 11 10 9
5 8 8 4 8 5 11 14 7 5 7 10 6 5 4 10 15 15 14 13 14 12 10 9 14 14 13 13 15 15 15 14 13 11 8 6 4 7 7 8 10 10 10 10
7 1 2 11 9 12 9 15 14 9 9 3 6 2 5 6 11 10 13 15 13 14 11 10 14 15 14 15 15 15 15 15 14 12 9 6 3 4 4 7 8 11 11 11
7 1 7 8 9 13 9 10 13 18 12 5 3 7 5 9 13 11 13 13 14 11 12 11 14 16 17 17 14 13 13 14 13 12 11 12 11 10 6 7 7 9 10 12
8 6 8 5 3 14 3 12 16 16 6 6 5 2 7 4 11 16 15 14 14 13 14 15 15 15 17 17 17 16 13 13 12 12 13 12 12 10 6 6 7 8 8 10
4 2 4 3 6 12 21 21 11 6 3 3 6 3 5 12 17 11 12 12 15 15 17 15 12 12 14 15 16 15 16 15 14 14 14 15 15 12 9 9 9 9 8 8
4 5 4 13 15 14 2 15 6 4 5 1 3 6 5 8 14 14 13 13 12 13 14 15 15 17 15 17 18 18 17 18 15 16 16 16 17 15 13 12 9 8 8 7
15 13 11 9 5 11 15 7 3 4 5 4 3 6 2 3 11 15 8 3 4 10 12 15 17 16 17 17 18 18 19 18 16 15 16 15 14 13 11 10 9 9 9 9
15 12 4 4 6 11 7 7 3 7 2 3 4 4 3 5 11 10 10 7 7 7 9 12 11 14 15 17 19 20 19 16 16 16 14 14 13 13 12 11 8 10 9 9
9 12 2 7 8 8 4 14 4 1 7 3 3 2 9 15 17 12 9 9 3 3 5 8 9 10 11 12 12 12 14 14 13 13 11 11 12 12 11 11 12 13 14 13
12 8 5 10 10 14 7 7 5 2 2 4 7 4 9 17 14 13 10 6 3 4 5 5 5 5 5 6 7 8 9 10 9 9 9 10 10 9 10 10 10 12 14 12
9 4 6 5 2 4 5 9 13 7 4 2 3 9 5 12 12 11 10 8 8 9 9 10 9 9 9 8 7 6 6 6 6 5 6 5 3 4 4 3 5 6 6 7
13 10 10 6 3 3 7 6 7 6 4 7 11 14 3 6 7 7 12 11 11 12 12 13 13 13 12 11 10 9 7 6 6 6 7 8 8 10 9 10 10 11 11 10
9 15 13 18 13 8 6 8 11 15 10 8 11 16 13 12 15 11 12 13 14 13 12 13 14 13 12 11 10 10 11 10 10 11 12 13 13 13 12 12 12 13 13 13
8 21 13 18 7 7 7 8 17 19 14 16 16 22 23 19 19 17 15 16 17 15 14 12 13 14 13 13 13 14 13 13 13 15 15 14 13 13 12 12 12 12 13 12
3 12 13 25 10 12 16 12 14 14 6 2 16 17 12 11 10 14 17 19 18 17 16 14 13 13 14 14 15 15 14 14 15 16 15 12 13 13 13 13 12 14 14 14
3 7 11 23 11 13 17 19 17 16 12 10 12 13 16 12 17 21 20 20 21 19 18 17 15 14 15 15 15 16 14 13 15 16 14 14 13 14 14 13 15 16 16 16
2 2 3 18 11 18 18 14 18 23 20 16 5 12 22 17 13 15 15 20 21 22 21 19 17 16 16 16 16 16 14 15 15 15 13 12 13 15 14 15 16 16 15 16
20 6 5 14 20 4 9 7 12 14 21 24 18 14 11 17 17 9 14 17 19 19 19 18 17 17 17 16 16 17 16 15 15 14 13 12 12 13 12 14 14 13 14 15
18 17 8 7 19 22 13 17 13 14 22 22 24 25 25 22 16 14 21 21 22 20 18 20 19 19 19 16 16 17 15 15 15 13 13 11 11 11 12 12 13 12 14 14
12 10 25 13 15 14 14 14 15 14 11 26 29 30 30 23 8 22 28 24 23 23 24 22 21 20 19 17 17 17 15 15 13 13 14 14 12 12 12 11 10 11 11 11
18 19 13 12 12 15 16 14 16 13 2 25 27 31 32 14 24 36 31 29 27 27 24 22 22 20 18 18 18 18 17 15 14 14 15 13 11 11 10 11 9 8 8 9
21 18 19 20 13 4 15 18 24 12 10 19 27 29 29 26 32 37 35 31 28 28 26 22 22 22 19 17 17 18 17 16 15 15 14 12 11 10 8 8 7 8 8 10
9 7 18 13 20 18 18 12 12 18 22 24 31 35 32 30 34 36 32 31 29 26 26 23 24 23 21 17 16 16 17 15 16 15 13 12 10 9 8 8 7 8 9 10
3 13 15 18 9 24 15 20 9 14 10 17 23 34 35 35 36 38 32 30 29 27 25 25 24 22 21 18 16 17 17 17 16 14 12 11 10 8 8 8 7 7 5 7
2 5 17 20 20 24 22 25 15 19 23 28 33 29 25 34 36 32 31 29 31 30 27 24 23 23 21 19 18 17 18 16 16 14 12 9 8 8 8 9 8 5 4 4
Wind_Direction
152 200 207 200 212 261 215 175 163 181 169 183 198 234 192 194 214 227 235 232 241 239 247 208 209 205 201 198 199 200 200 192 186 198 220 249 248 255 236 234 241 253 254 246
155 234 236 224 203 190 184 168 145 116 159 198 222 259 196 200 221 227 240 247 252 255 237 189 195 195 195 197 199 203 208 198 193 201 217 215 201 235 244 253 243 240 242 245
205 209 187 201 175 161 182 196 169 157 147 65 151 211 227 222 232 237 242 254 261 254 240 190 188 197 194 197 200 202 206 202 197 202 198 205 222 250 243 234 246 243 247 247
240 193 220 216 208 190 185 196 177 150 160 170 309 196 222 220 238 229 243 240 251 246 229 201 189 197 200 209 205 208 200 200 197 193 209 215 230 243 251 256 261 263 254 252
210 171 168 197 186 186 193 156 147 148 123 145 187 243 175 178 240 253 239 240 244 235 225 215 209 206 204 200 203 207 202 198 198 198 209 220 234 239 258 260 269 252 251 244
210 168 145 99 51 168 131 116 106 104 141 205 177 236 184 191 202 224 250 239 236 233 222 224 210 195 203 202 205 209 206 206 203 202 207 217 230 234 239 250 262 264 264 255
192 171 98 134 88 133 160 154 140 175 206 219 137 210 258 206 196 203 214 238 241 235 231 227 215 206 202 199 204 208 212 219 207 207 213 219 230 236 240 250 261 274 287 291
204 213 176 181 179 182 177 202 201 194 191 171 117 228 119 195 194 208 238 224 208 221 223 225 222 215 209 204 203 207 212 221 221 220 220 222 230 238 245 257 266 275 290 302
192 221 120 168 141 156 166 199 104 105 80 192 175 249 303 157 180 192 210 230 233 208 213 220 214 213 209 208 206 205 211 219 222 226 230 230 232 236 249 256 263 270 270 277
192 220 139 126 125 52 199 146 176 129 167 171 161 191 148 154 163 178 199 216 218 177 192 198 200 205 206 212 214 213 218 222 225 229 229 234 240 246 259 270 270 272 277 275
158 215 142 155 206 179 149 174 75 120 270 158 160 168 181 163 168 177 188 188 119 108 133 141 151 160 167 172 187 192 200 210 216 219 221 226 235 241 248 259 270 273 283 289
187 155 171 177 97 212 188 177 192 223 205 125 140 148 178 176 175 178 153 130 103 100 103 106 104 106 111 117 132 150 166 186 198 193 198 217 243 257 275 345 356 349 342 350
184 209 192 157 168 138 198 191 182 142 132 191 163 166 165 195 186 169 145 126 114 111 108 108 103 100 102 101 102 102 109 116 123 125 112 87 78 73 61 55 44 36 34 41
186 210 209 207 211 160 185 200 198 210 219 197 181 159 182 180 184 173 145 133 125 121 121 118 112 106 101 98 99 91 87 93 96 95 88 80 73 71 67 59 53 52 49 51
180 216 206 230 196 179 211 200 190 206 219 203 170 169 183 183 188 183 154 143 138 134 130 125 122 118 113 106 100 97 94 93 97 93 87 81 76 72 67 62 61 60 57 56
10 205 204 232 206 235 246 243 214 206 216 155 171 165 174 167 151 163 163 155 150 146 138 129 125 122 118 113 107 104 100 97 98 95 90 84 81 74 69 66 66 68 64 58
61 192 192 226 210 222 249 236 203 205 200 176 171 186 162 173 185 180 170 166 160 150 143 140 137 131 124 117 117 110 107 103 96 93 88 85 83 81 77 78 77 75 67 64
210 107 239 214 168 221 237 247 215 211 206 208 154 175 176 181 175 166 170 164 155 151 149 144 138 131 123 120 114 112 108 102 100 97 94 94 92 86 80 80 70 66 59 56
216 205 217 206 213 257 239 207 183 190 222 202 198 160 154 134 128 136 163 162 152 151 144 140 134 132 128 125 122 115 107 102 98 95 97 97 96 94 91 81 72 67 67 63
204 211 219 179 216 219 219 211 218 204 246 191 180 168 158 154 174 186 163 151 143 141 142 140 137 134 130 131 127 117 113 108 103 106 106 109 102 96 91 81 76 80 79 78
165 185 208 214 217 227 198 216 148 188 235 176 184 173 165 175 205 149 150 149 147 146 144 139 141 140 139 139 133 124 124 117 117 115 110 106 103 101 99 95 87 92 92 91
171 169 187 201 206 230 181 153 185 209 174 177 178 176 178 149 133 143 148 147 146 147 145 146 144 142 145 147 143 140 136 133 128 120 116 113 111 108 108 107 104 100 99 86
200 198 188 198 202 257 191 187 209 194 181 183 181 177 165 148 152 150 153 152 154 153 150 152 148 146 151 156 154 146 145 145 140 132 128 123 119 117 116 109 105 97 84 77
211 180 200 169 207 220 219 220 211 203 204 191 178 169 164 155 157 152 154 153 152 157 154 154 152 154 156 160 158 150 153 149 148 145 142 138 135 127 115 108 100 89 83 84
192 169 184 193 188 210 232 227 206 207 198 174 174 166 164 155 161 155 157 156 155 157 158 159 159 158 157 159 158 154 153 152 148 144 144 141 138 134 122 107 98 97 82 74
216 191 192 199 188 186 215 225 195 180 174 168 158 166 168 157 156 156 155 155 156 158 160 160 159 156 160 162 158 158 160 159 153 151 153 153 148 147 143 140 123 69 80 86